Time,TemperatureF,DewpointF,PressureIn,WindDirection,WindDirectionDegrees,WindSpeedMPH,WindSpeedGustMPH,Humidity,HourlyPrecipIn,Conditions,Clouds,dailyrainin,SoftwareType,DateUTC
2013-03-24 00:00:00,69.4,69.1,29.51,SSE,159,2.0,5.0,99,0.00,,---,0.19,VWS V14.01,2013-03-24 05:00:00,
2013-03-24 00:05:00,69.4,69.1,29.51,SSW,195,2.0,3.0,99,0.00,,---,0.00,VWS V14.01,2013-03-24 05:05:00,
2013-03-24 00:10:00,69.4,69.1,29.50,SSW,204,2.0,5.0,99,0.00,,---,0.00,VWS V14.01,2013-03-24 05:10:00,
2013-03-24 00:15:00,69.4,69.1,29.50,SSE,167,2.0,5.0,99,0.00,,---,0.00,VWS V14.01,2013-03-24 05:15:00,
2013-03-24 00:20:00,69.4,69.1,29.51,SW,215,0.0,5.0,99,0.00,,---,0.00,VWS V14.01,2013-03-24 05:20:00,
2013-03-24 00:25:00,69.4,69.1,29.51,South,176,1.0,5.0,99,0.00,,---,0.00,VWS V14.01,2013-03-24 05:25:00,
2013-03-24 00:30:00,69.4,69.1,29.50,WSW,252,2.0,5.0,99,0.00,,---,0.00,VWS V14.01,2013-03-24 05:30:00,
2013-03-24 00:35:00,69.4,69.1,29.51,South,190,3.0,3.0,99,0.00,,---,0.00,VWS V14.01,2013-03-24 05:35:00,
2013-03-24 00:40:00,69.4,69.1,29.51,SSW,207,3.0,4.0,99,0.00,,---,0.00,VWS V14.01,2013-03-24 05:40:00,
2013-03-24 00:45:00,69.4,69.1,29.50,SW,221,2.0,4.0,99,0.00,,---,0.00,VWS V14.01,2013-03-24 05:45:00,
2013-03-24 00:50:00,69.3,69.0,29.50,SW,217,1.0,6.0,99,0.00,,---,0.00,VWS V14.01,2013-03-24 05:50:00,
2013-03-24 00:55:00,69.3,69.0,29.50,SW,217,1.0,6.0,99,0.00,,---,0.00,VWS V14.01,2013-03-24 05:55:00,
2013-03-24 01:00:00,69.3,69.0,29.50,SSW,208,1.0,6.0,99,0.00,,---,0.00,VWS V14.01,2013-03-24 06:00:00,
2013-03-24 01:05:00,69.3,69.0,29.50,SSW,195,2.0,3.0,99,0.00,,---,0.00,VWS V14.01,2013-03-24 06:05:00,
2013-03-24 01:10:00,69.3,69.0,29.50,SSW,208,1.0,3.0,99,0.00,,---,0.00,VWS V14.01,2013-03-24 06:10:00,
2013-03-24 01:15:00,69.4,69.1,29.50,SSW,210,1.0,3.0,99,0.00,,---,0.00,VWS V14.01,2013-03-24 06:15:00,
2013-03-24 01:19:00,69.4,69.1,29.50,SSW,213,2.0,3.0,99,0.00,,---,0.00,VWS V14.01,2013-03-24 06:19:00,
2013-03-24 01:24:00,69.4,69.1,29.50,SSW,195,2.0,3.0,99,0.00,,---,0.00,VWS V14.01,2013-03-24 06:24:00,
2013-03-24 01:29:00,69.5,69.2,29.50,SSW,195,1.0,4.0,99,0.00,,---,0.00,VWS V14.01,2013-03-24 06:29:00,
2013-03-24 01:34:00,69.5,69.2,29.50,South,187,1.0,2.0,99,0.00,,---,0.00,VWS V14.01,2013-03-24 06:34:00,
2013-03-24 01:39:00,69.5,69.2,29.50,SSW,205,1.0,2.0,99,0.00,,---,0.00,VWS V14.01,2013-03-24 06:39:00,
2013-03-24 01:44:00,69.5,69.2,29.50,SSW,195,2.0,3.0,99,0.00,,---,0.00,VWS V14.01,2013-03-24 06:44:00,
2013-03-24 01:49:00,69.5,69.2,29.50,SW,222,1.0,3.0,99,0.00,,---,0.00,VWS V14.01,2013-03-24 06:49:00,
2013-03-24 01:54:00,69.5,69.2,29.50,SSW,211,1.0,3.0,99,0.00,,---,0.00,VWS V14.01,2013-03-24 06:54:00,
2013-03-24 01:59:00,69.4,69.1,29.50,SSW,208,1.0,4.0,99,0.00,,---,0.00,VWS V14.01,2013-03-24 06:59:00,
2013-03-24 02:04:00,69.4,69.1,29.50,South,187,1.0,3.0,99,0.00,,---,0.00,VWS V14.01,2013-03-24 07:04:00,
2013-03-24 02:09:00,69.4,69.1,29.50,SSE,162,1.0,3.0,99,0.00,,---,0.00,VWS V14.01,2013-03-24 07:09:00,
2013-03-24 02:14:00,69.4,69.1,29.50,SSW,201,1.0,3.0,99,0.00,,---,0.00,VWS V14.01,2013-03-24 07:14:00,
2013-03-24 02:19:00,69.4,69.1,29.50,SSW,212,1.0,3.0,99,0.00,,---,0.00,VWS V14.01,2013-03-24 07:19:00,
2013-03-24 02:24:00,69.4,69.1,29.50,South,170,1.0,3.0,99,0.00,,---,0.00,VWS V14.01,2013-03-24 07:24:00,
2013-03-24 02:29:00,69.4,69.1,29.50,SW,214,2.0,3.0,99,0.00,,---,0.00,VWS V14.01,2013-03-24 07:29:00,
2013-03-24 02:34:00,69.4,69.1,29.50,SW,225,1.0,2.0,99,0.00,,---,0.00,VWS V14.01,2013-03-24 07:34:00,
2013-03-24 02:39:00,69.5,69.2,29.49,SW,215,0.0,2.0,99,0.00,,---,0.00,VWS V14.01,2013-03-24 07:39:00,
2013-03-24 02:44:00,69.5,69.2,29.49,SW,232,0.0,3.0,99,0.00,,---,0.00,VWS V14.01,2013-03-24 07:44:00,
2013-03-24 02:49:00,69.5,69.2,29.49,SSW,207,0.0,3.0,99,0.00,,---,0.00,VWS V14.01,2013-03-24 07:49:00,
2013-03-24 02:54:00,69.5,69.2,29.49,SSW,207,0.0,3.0,99,0.00,,---,0.00,VWS V14.01,2013-03-24 07:54:00,
2013-03-24 02:59:00,69.5,69.2,29.49,SW,224,0.0,3.0,99,0.00,,---,0.00,VWS V14.01,2013-03-24 07:59:00,
2013-03-24 03:04:00,69.5,69.2,29.49,SW,224,0.0,0.0,99,0.00,,---,0.00,VWS V14.01,2013-03-24 08:04:00,
2013-03-24 03:09:00,69.5,69.2,29.49,SW,224,0.0,1.0,99,0.01,,---,0.01,VWS V14.01,2013-03-24 08:09:00,
2013-03-24 03:14:00,69.5,69.2,29.49,SW,224,0.0,1.0,99,0.01,,---,0.01,VWS V14.01,2013-03-24 08:14:00,
2013-03-24 03:19:00,69.6,69.3,29.49,SW,223,0.0,1.0,99,0.01,,---,0.01,VWS V14.01,2013-03-24 08:19:00,
2013-03-24 03:24:00,69.5,69.2,29.50,SW,224,0.0,1.0,99,0.01,,---,0.01,VWS V14.01,2013-03-24 08:24:00,
2013-03-24 03:29:00,69.5,69.2,29.49,SSW,199,0.0,1.0,99,0.01,,---,0.01,VWS V14.01,2013-03-24 08:29:00,
2013-03-24 03:34:00,69.5,69.2,29.49,SSW,198,0.0,0.0,99,0.01,,---,0.01,VWS V14.01,2013-03-24 08:34:00,
2013-03-24 03:39:00,69.5,69.2,29.50,SSW,198,0.0,0.0,99,0.01,,---,0.01,VWS V14.01,2013-03-24 08:39:00,
2013-03-24 03:44:00,69.6,69.3,29.50,SSW,199,0.0,0.0,99,0.01,,---,0.01,VWS V14.01,2013-03-24 08:44:00,
2013-03-24 03:49:00,69.7,69.4,29.50,West,263,0.0,1.0,99,0.01,,---,0.01,VWS V14.01,2013-03-24 08:49:00,
2013-03-24 03:54:00,69.8,69.5,29.50,West,263,0.0,1.0,99,0.01,,---,0.01,VWS V14.01,2013-03-24 08:54:00,
2013-03-24 03:59:00,69.8,69.5,29.50,SW,228,0.0,1.0,99,0.01,,---,0.01,VWS V14.01,2013-03-24 08:59:00,
2013-03-24 04:04:00,69.7,69.4,29.50,SW,230,0.0,0.0,99,0.01,,---,0.01,VWS V14.01,2013-03-24 09:04:00,
2013-03-24 04:09:00,69.7,69.4,29.50,SW,228,0.0,0.0,99,0.01,,---,0.01,VWS V14.01,2013-03-24 09:09:00,
2013-03-24 04:14:00,69.7,69.4,29.50,WNW,297,0.0,1.0,99,0.01,,---,0.01,VWS V14.01,2013-03-24 09:14:00,
2013-03-24 04:19:00,69.6,69.3,29.50,West,262,0.0,2.0,99,0.01,,---,0.01,VWS V14.01,2013-03-24 09:19:00,
2013-03-24 04:24:00,69.6,69.3,29.49,SW,235,0.0,2.0,99,0.01,,---,0.01,VWS V14.01,2013-03-24 09:24:00,
2013-03-24 04:29:00,69.5,69.2,29.49,SW,215,0.0,4.0,99,0.01,,---,0.01,VWS V14.01,2013-03-24 09:29:00,
2013-03-24 04:34:00,69.4,69.1,29.49,SW,216,0.0,0.0,99,0.00,,---,0.01,VWS V14.01,2013-03-24 09:34:00,
2013-03-24 04:39:00,69.1,68.8,29.50,NNW,329,0.0,3.0,99,0.00,,---,0.01,VWS V14.01,2013-03-24 09:39:00,
2013-03-24 04:44:00,68.2,67.6,29.50,West,269,2.0,3.0,98,0.00,,---,0.01,VWS V14.01,2013-03-24 09:44:00,
2013-03-24 04:49:00,67.4,66.8,29.50,WSW,256,0.0,3.0,98,0.00,,---,0.01,VWS V14.01,2013-03-24 09:49:00,
2013-03-24 04:54:00,66.8,66.2,29.51,NNW,333,1.0,6.0,98,0.00,,---,0.01,VWS V14.01,2013-03-24 09:54:00,
2013-03-24 04:59:00,66.2,65.3,29.51,WSW,257,0.0,6.0,97,0.00,,---,0.01,VWS V14.01,2013-03-24 09:59:00,
2013-03-24 05:04:00,65.8,64.9,29.52,ENE,77,1.0,1.0,97,0.00,,---,0.01,VWS V14.01,2013-03-24 10:04:00,
2013-03-24 05:09:00,65.4,64.5,29.52,NNW,340,0.0,5.0,97,0.00,,---,0.01,VWS V14.01,2013-03-24 10:09:00,
2013-03-24 05:14:00,65.1,64.2,29.53,NNW,338,1.0,5.0,97,0.00,,---,0.01,VWS V14.01,2013-03-24 10:14:00,
2013-03-24 05:19:00,64.9,64.0,29.53,West,280,1.0,5.0,97,0.00,,---,0.01,VWS V14.01,2013-03-24 10:19:00,
2013-03-24 05:24:00,64.6,63.7,29.53,ENE,66,1.0,5.0,97,0.00,,---,0.01,VWS V14.01,2013-03-24 10:24:00,
2013-03-24 05:29:00,64.4,63.5,29.53,NNW,334,0.0,5.0,97,0.00,,---,0.01,VWS V14.01,2013-03-24 10:29:00,
2013-03-24 05:34:00,64.3,63.4,29.53,NW,313,0.0,1.0,97,0.00,,---,0.01,VWS V14.01,2013-03-24 10:34:00,
2013-03-24 05:39:00,64.1,63.2,29.53,East,89,1.0,1.0,97,0.00,,---,0.01,VWS V14.01,2013-03-24 10:39:00,
2013-03-24 05:44:00,64.0,63.1,29.53,West,275,0.0,1.0,97,0.00,,---,0.01,VWS V14.01,2013-03-24 10:44:00,
2013-03-24 05:49:00,63.9,63.0,29.53,NW,319,0.0,2.0,97,0.00,,---,0.01,VWS V14.01,2013-03-24 10:49:00,
2013-03-24 05:54:00,63.8,62.9,29.53,NW,319,0.0,2.0,97,0.00,,---,0.01,VWS V14.01,2013-03-24 10:54:00,
2013-03-24 05:59:00,63.7,62.8,29.53,NW,319,0.0,2.0,97,0.00,,---,0.01,VWS V14.01,2013-03-24 10:59:00,
2013-03-24 06:04:00,63.5,62.6,29.53,NW,308,0.0,0.0,97,0.00,,---,0.01,VWS V14.01,2013-03-24 11:04:00,
2013-03-24 06:09:00,63.3,62.1,29.54,NE,39,0.0,1.0,96,0.00,,---,0.01,VWS V14.01,2013-03-24 11:09:00,
2013-03-24 06:14:00,63.1,61.9,29.53,North,349,0.0,1.0,96,0.00,,---,0.01,VWS V14.01,2013-03-24 11:14:00,
2013-03-24 06:19:00,62.9,61.8,29.54,NW,307,0.0,1.0,96,0.00,,---,0.01,VWS V14.01,2013-03-24 11:19:00,
2013-03-24 06:24:00,62.8,61.7,29.54,NW,308,0.0,1.0,96,0.00,,---,0.01,VWS V14.01,2013-03-24 11:24:00,
2013-03-24 06:29:00,62.5,61.3,29.54,NW,308,0.0,1.0,96,0.00,,---,0.01,VWS V14.01,2013-03-24 11:29:00,
2013-03-24 06:34:00,62.1,61.0,29.54,NW,308,0.0,0.0,96,0.00,,---,0.01,VWS V14.01,2013-03-24 11:34:00,
2013-03-24 06:39:00,61.6,60.5,29.54,NW,307,0.0,0.0,96,0.00,,---,0.01,VWS V14.01,2013-03-24 11:39:00,
2013-03-24 06:44:00,61.2,60.0,29.53,NW,308,0.0,0.0,96,0.00,,---,0.01,VWS V14.01,2013-03-24 11:44:00,
2013-03-24 06:49:00,60.8,59.7,29.53,NW,308,0.0,0.0,96,0.00,,---,0.01,VWS V14.01,2013-03-24 11:49:00,
2013-03-24 06:54:00,60.4,59.3,29.53,NW,307,0.0,0.0,96,0.00,,---,0.01,VWS V14.01,2013-03-24 11:54:00,
2013-03-24 06:59:00,60.0,59.2,29.53,NW,308,0.0,0.0,97,0.00,,---,0.01,VWS V14.01,2013-03-24 11:59:00,
2013-03-24 07:04:00,59.7,58.8,29.53,NW,308,0.0,0.0,97,0.00,,---,0.01,VWS V14.01,2013-03-24 12:04:00,
2013-03-24 07:09:00,59.4,58.5,29.53,NW,308,0.0,0.0,97,0.00,,---,0.01,VWS V14.01,2013-03-24 12:09:00,
2013-03-24 07:14:00,59.1,58.2,29.53,NW,307,0.0,0.0,97,0.00,,---,0.01,VWS V14.01,2013-03-24 12:14:00,
2013-03-24 07:19:00,59.0,58.2,29.53,NW,307,0.0,0.0,97,0.00,,---,0.01,VWS V14.01,2013-03-24 12:19:00,
2013-03-24 07:24:00,59.0,58.2,29.53,NW,307,0.0,0.0,97,0.00,,---,0.01,VWS V14.01,2013-03-24 12:24:00,
2013-03-24 07:29:00,58.9,58.3,29.53,NW,307,0.0,0.0,98,0.00,,---,0.01,VWS V14.01,2013-03-24 12:29:00,
2013-03-24 07:34:00,58.8,58.2,29.54,NW,307,0.0,0.0,98,0.00,,---,0.01,VWS V14.01,2013-03-24 12:34:00,
2013-03-24 07:39:00,58.9,58.3,29.54,NW,308,0.0,0.0,98,0.00,,---,0.01,VWS V14.01,2013-03-24 12:39:00,
2013-03-24 07:44:00,59.0,58.4,29.55,NW,307,0.0,0.0,98,0.00,,---,0.01,VWS V14.01,2013-03-24 12:44:00,
2013-03-24 07:49:00,59.1,58.5,29.56,NW,307,0.0,0.0,98,0.00,,---,0.01,VWS V14.01,2013-03-24 12:49:00,
2013-03-24 07:54:00,59.2,58.6,29.56,NW,308,0.0,0.0,98,0.00,,---,0.01,VWS V14.01,2013-03-24 12:54:00,
2013-03-24 07:59:00,59.4,58.8,29.57,NW,308,0.0,0.0,98,0.00,,---,0.01,VWS V14.01,2013-03-24 12:59:00,
2013-03-24 08:04:00,59.8,59.5,29.57,NW,308,0.0,0.0,99,0.00,,---,0.01,VWS V14.01,2013-03-24 13:04:00,
2013-03-24 08:09:00,60.3,60.0,29.57,West,260,0.0,0.0,99,0.00,,---,0.01,VWS V14.01,2013-03-24 13:09:00,
2013-03-24 08:14:00,60.9,60.6,29.57,West,273,0.0,1.0,99,0.00,,---,0.01,VWS V14.01,2013-03-24 13:14:00,
2013-03-24 08:19:00,61.3,61.0,29.57,SW,226,0.0,2.0,99,0.00,,---,0.01,VWS V14.01,2013-03-24 13:19:00,
2013-03-24 08:24:00,61.9,61.6,29.57,SW,225,0.0,2.0,99,0.00,,---,0.01,VWS V14.01,2013-03-24 13:24:00,
2013-03-24 08:29:00,62.5,62.2,29.57,SW,225,0.0,2.0,99,0.00,,---,0.01,VWS V14.01,2013-03-24 13:29:00,
2013-03-24 08:34:00,63.5,63.2,29.57,SW,225,0.0,0.0,99,0.00,,---,0.01,VWS V14.01,2013-03-24 13:34:00,
2013-03-24 08:39:00,64.1,63.8,29.57,SW,225,0.0,0.0,99,0.00,,---,0.01,VWS V14.01,2013-03-24 13:39:00,
2013-03-24 08:44:00,64.2,63.6,29.58,SW,225,0.0,0.0,98,0.00,,---,0.01,VWS V14.01,2013-03-24 13:44:00,
2013-03-24 08:49:00,64.9,64.0,29.58,SW,225,0.0,1.0,97,0.00,,---,0.01,VWS V14.01,2013-03-24 13:49:00,
2013-03-24 08:54:00,65.7,64.2,29.59,SSW,199,0.0,1.0,95,0.00,,---,0.01,VWS V14.01,2013-03-24 13:54:00,
2013-03-24 08:59:00,66.7,64.9,29.59,SSW,198,0.0,1.0,94,0.00,,---,0.01,VWS V14.01,2013-03-24 13:59:00,
2013-03-24 09:04:00,67.1,64.4,29.59,WSW,257,0.0,1.0,91,0.00,,---,0.01,VWS V14.01,2013-03-24 14:04:00,
2013-03-24 09:09:00,67.6,64.6,29.60,WSW,249,0.0,2.0,90,0.00,,---,0.01,VWS V14.01,2013-03-24 14:09:00,
2013-03-24 09:14:00,68.1,65.1,29.61,SSW,198,2.0,2.0,90,0.00,,---,0.01,VWS V14.01,2013-03-24 14:14:00,
2013-03-24 09:19:00,68.5,65.1,29.60,SW,219,1.0,3.0,89,0.00,,---,0.01,VWS V14.01,2013-03-24 14:19:00,
2013-03-24 09:24:00,68.7,64.7,29.61,SW,236,0.0,3.0,87,0.00,,---,0.01,VWS V14.01,2013-03-24 14:24:00,
2013-03-24 09:29:00,69.2,65.5,29.61,SW,228,0.0,3.0,88,0.00,,---,0.01,VWS V14.01,2013-03-24 14:29:00,
2013-03-24 09:33:00,69.7,65.3,29.61,SSW,211,2.0,2.0,86,0.00,,---,0.01,VWS V14.01,2013-03-24 14:33:00,
2013-03-24 09:38:00,69.9,65.5,29.61,SW,236,2.0,3.0,86,0.00,,---,0.01,VWS V14.01,2013-03-24 14:38:00,
2013-03-24 09:43:00,70.0,65.3,29.62,SSW,205,1.0,4.0,85,0.00,,---,0.01,VWS V14.01,2013-03-24 14:43:00,
2013-03-24 09:48:00,70.0,64.6,29.62,SW,226,2.0,4.0,83,0.00,,---,0.01,VWS V14.01,2013-03-24 14:48:00,
2013-03-24 09:53:00,70.3,65.2,29.62,WNW,285,0.0,4.0,84,0.00,,---,0.01,VWS V14.01,2013-03-24 14:53:00,
2013-03-24 09:58:00,70.6,64.8,29.63,SW,219,1.0,4.0,82,0.00,,---,0.01,VWS V14.01,2013-03-24 14:58:00,
2013-03-24 10:03:00,70.6,65.2,29.63,SW,226,0.0,0.0,83,0.00,,---,0.01,VWS V14.01,2013-03-24 15:03:00,
2013-03-24 10:08:00,71.0,64.9,29.63,SSW,212,0.0,3.0,81,0.00,,---,0.01,VWS V14.01,2013-03-24 15:08:00,
2013-03-24 10:13:00,71.4,64.6,29.63,SW,236,1.0,3.0,79,0.00,,---,0.01,VWS V14.01,2013-03-24 15:13:00,
2013-03-24 10:18:00,72.0,66.2,29.63,NW,311,3.0,3.0,82,0.00,,---,0.01,VWS V14.01,2013-03-24 15:18:00,
2013-03-24 10:23:00,72.6,66.1,29.63,WNW,290,1.0,3.0,80,0.00,,---,0.01,VWS V14.01,2013-03-24 15:23:00,
2013-03-24 10:28:00,73.0,66.5,29.63,NNW,341,0.0,4.0,80,0.00,,---,0.01,VWS V14.01,2013-03-24 15:28:00,
2013-03-24 10:33:00,73.2,65.2,29.62,ENE,72,2.0,2.0,76,0.00,,---,0.01,VWS V14.01,2013-03-24 15:33:00,
2013-03-24 10:38:00,73.2,64.8,29.61,SSW,208,1.0,4.0,75,0.00,,---,0.01,VWS V14.01,2013-03-24 15:38:00,
2013-03-24 10:43:00,73.0,65.0,29.61,SW,221,0.0,4.0,76,0.00,,---,0.01,VWS V14.01,2013-03-24 15:43:00,
2013-03-24 10:48:00,73.3,65.3,29.61,WSW,242,1.0,4.0,76,0.00,,---,0.01,VWS V14.01,2013-03-24 15:48:00,
2013-03-24 10:53:00,73.8,65.4,29.61,West,260,0.0,4.0,75,0.00,,---,0.01,VWS V14.01,2013-03-24 15:53:00,
2013-03-24 10:58:00,74.2,66.2,29.61,WSW,252,1.0,4.0,76,0.00,,---,0.01,VWS V14.01,2013-03-24 15:58:00,
2013-03-24 11:03:00,74.6,65.4,29.61,WSW,252,1.0,4.0,73,0.00,,---,0.01,VWS V14.01,2013-03-24 16:03:00,
2013-03-24 11:08:00,74.7,66.3,29.62,SW,221,2.0,4.0,75,0.00,,---,0.01,VWS V14.01,2013-03-24 16:08:00,
2013-03-24 11:13:00,74.9,65.7,29.62,ESE,106,2.0,5.0,73,0.00,,---,0.01,VWS V14.01,2013-03-24 16:13:00,
2013-03-24 11:18:00,75.6,66.3,29.62,SW,228,1.0,5.0,73,0.00,,---,0.01,VWS V14.01,2013-03-24 16:18:00,
2013-03-24 11:23:00,75.9,65.0,29.62,SSW,208,0.0,5.0,69,0.00,,---,0.01,VWS V14.01,2013-03-24 16:23:00,
2013-03-24 11:28:00,76.4,65.9,29.63,West,262,1.0,5.0,70,0.00,,---,0.01,VWS V14.01,2013-03-24 16:28:00,
2013-03-24 11:33:00,76.8,65.4,29.63,WSW,240,0.0,5.0,68,0.00,,---,0.01,VWS V14.01,2013-03-24 16:33:00,
2013-03-24 11:38:00,77.2,65.8,29.62,SW,225,2.0,3.0,68,0.00,,---,0.01,VWS V14.01,2013-03-24 16:38:00,
2013-03-24 11:43:00,77.2,65.8,29.62,West,260,1.0,3.0,68,0.00,,---,0.01,VWS V14.01,2013-03-24 16:43:00,
2013-03-24 11:48:00,77.4,65.2,29.62,SW,215,1.0,3.0,66,0.00,,---,0.01,VWS V14.01,2013-03-24 16:48:00,
2013-03-24 11:53:00,77.9,65.2,29.62,WSW,257,5.0,5.0,65,0.00,,---,0.01,VWS V14.01,2013-03-24 16:53:00,
2013-03-24 11:58:00,77.9,65.2,29.62,SW,224,2.0,6.0,65,0.00,,---,0.01,VWS V14.01,2013-03-24 16:58:00,
2013-03-24 12:03:00,77.9,66.5,29.62,West,260,1.0,7.0,68,0.00,,---,0.01,VWS V14.01,2013-03-24 17:03:00,
2013-03-24 12:08:00,78.6,66.7,29.62,West,273,1.0,5.0,67,0.00,,---,0.01,VWS V14.01,2013-03-24 17:08:00,
2013-03-24 12:13:00,79.1,65.4,29.62,WNW,285,1.0,5.0,63,0.00,,---,0.01,VWS V14.01,2013-03-24 17:13:00,
2013-03-24 12:18:00,79.0,65.8,29.62,WSW,242,2.0,5.0,64,0.00,,---,0.01,VWS V14.01,2013-03-24 17:18:00,
2013-03-24 12:23:00,78.7,66.0,29.62,SW,226,4.0,5.0,65,0.00,,---,0.01,VWS V14.01,2013-03-24 17:23:00,
2013-03-24 12:28:00,78.9,65.7,29.62,SW,225,2.0,5.0,64,0.00,,---,0.01,VWS V14.01,2013-03-24 17:28:00,
2013-03-24 12:33:00,78.8,64.7,29.62,WNW,294,0.0,5.0,62,0.00,,---,0.01,VWS V14.01,2013-03-24 17:33:00,
2013-03-24 12:38:00,78.7,65.5,29.63,SSW,198,1.0,4.0,64,0.00,,---,0.01,VWS V14.01,2013-03-24 17:38:00,
2013-03-24 12:43:00,78.1,64.9,29.63,West,260,0.0,4.0,64,0.00,,---,0.01,VWS V14.01,2013-03-24 17:43:00,
2013-03-24 12:48:00,78.0,64.4,29.62,WSW,246,2.0,7.0,63,0.00,,---,0.01,VWS V14.01,2013-03-24 17:48:00,
2013-03-24 12:53:00,78.6,65.4,29.62,SSW,195,2.0,7.0,64,0.00,,---,0.01,VWS V14.01,2013-03-24 17:53:00,
2013-03-24 12:58:00,79.2,65.1,29.62,SSW,203,1.0,7.0,62,0.00,,---,0.01,VWS V14.01,2013-03-24 17:58:00,
2013-03-24 13:03:00,79.4,65.7,29.62,SW,235,3.0,7.0,63,0.00,,---,0.01,VWS V14.01,2013-03-24 18:03:00,
2013-03-24 13:08:00,78.1,63.6,29.62,ESE,114,1.0,6.0,61,0.00,,---,0.01,VWS V14.01,2013-03-24 18:08:00,
2013-03-24 13:13:00,77.7,64.6,29.62,WSW,257,1.0,6.0,64,0.00,,---,0.01,VWS V14.01,2013-03-24 18:13:00,
2013-03-24 13:18:00,78.5,64.4,29.62,WSW,252,3.0,7.0,62,0.00,,---,0.01,VWS V14.01,2013-03-24 18:18:00,
2013-03-24 13:23:00,78.5,64.4,29.62,SW,215,2.0,7.0,62,0.00,,---,0.01,VWS V14.01,2013-03-24 18:23:00,
2013-03-24 13:28:00,77.9,63.8,29.62,SSE,152,2.0,7.0,62,0.00,,---,0.01,VWS V14.01,2013-03-24 18:28:00,
2013-03-24 13:33:00,77.5,63.9,29.62,North,356,2.0,7.0,63,0.00,,---,0.01,VWS V14.01,2013-03-24 18:33:00,
2013-03-24 13:38:00,77.6,64.5,29.62,East,85,0.0,3.0,64,0.00,,---,0.01,VWS V14.01,2013-03-24 18:38:00,
2013-03-24 13:43:00,77.3,63.7,29.62,NW,304,3.0,5.0,63,0.00,,---,0.01,VWS V14.01,2013-03-24 18:43:00,
2013-03-24 13:48:00,76.4,63.8,29.62,NW,325,2.0,5.0,65,0.00,,---,0.01,VWS V14.01,2013-03-24 18:48:00,
2013-03-24 13:53:00,76.4,63.8,29.62,SW,236,0.0,7.0,65,0.00,,---,0.01,VWS V14.01,2013-03-24 18:53:00,
2013-03-24 13:58:00,76.1,63.0,29.62,WSW,246,3.0,7.0,64,0.00,,---,0.01,VWS V14.01,2013-03-24 18:58:00,
2013-03-24 14:03:00,75.6,64.3,29.62,NNW,332,1.0,7.0,68,0.00,,---,0.01,VWS V14.01,2013-03-24 19:03:00,
2013-03-24 14:08:00,75.8,63.2,29.62,WSW,257,2.0,5.0,65,0.00,,---,0.01,VWS V14.01,2013-03-24 19:08:00,
2013-03-24 14:13:00,75.5,62.0,29.62,North,9,3.0,5.0,63,0.00,,---,0.01,VWS V14.01,2013-03-24 19:13:00,
2013-03-24 14:18:00,74.9,61.5,29.62,East,96,1.0,5.0,63,0.00,,---,0.01,VWS V14.01,2013-03-24 19:18:00,
2013-03-24 14:23:00,75.0,62.5,29.62,WSW,257,2.0,7.0,65,0.00,,---,0.01,VWS V14.01,2013-03-24 19:23:00,
2013-03-24 14:28:00,75.1,62.1,29.62,West,262,3.0,7.0,64,0.00,,---,0.01,VWS V14.01,2013-03-24 19:28:00,
2013-03-24 14:33:00,74.3,61.3,29.62,East,81,4.0,7.0,64,0.00,,---,0.01,VWS V14.01,2013-03-24 19:33:00,
2013-03-24 14:38:00,74.1,61.6,29.62,WSW,244,2.0,5.0,65,0.00,,---,0.01,VWS V14.01,2013-03-24 19:38:00,
2013-03-24 14:43:00,73.8,60.4,29.62,SW,231,3.0,6.0,63,0.00,,---,0.01,VWS V14.01,2013-03-24 19:43:00,
2013-03-24 14:48:00,73.3,60.8,29.62,South,186,2.0,6.0,65,0.00,,---,0.01,VWS V14.01,2013-03-24 19:48:00,
2013-03-24 14:53:00,73.7,61.7,29.62,WNW,291,1.0,6.0,66,0.00,,---,0.01,VWS V14.01,2013-03-24 19:53:00,
2013-03-24 14:58:00,74.0,61.1,29.61,West,269,5.0,6.0,64,0.00,,---,0.01,VWS V14.01,2013-03-24 19:58:00,
2013-03-24 15:03:00,74.4,61.4,29.62,ENE,63,1.0,6.0,64,0.00,,---,0.01,VWS V14.01,2013-03-24 20:03:00,
2013-03-24 15:08:00,74.4,60.1,29.61,WSW,240,3.0,6.0,61,0.00,,---,0.01,VWS V14.01,2013-03-24 20:08:00,
2013-03-24 15:13:00,74.2,59.4,29.61,WSW,255,2.0,6.0,60,0.00,,---,0.01,VWS V14.01,2013-03-24 20:13:00,
2013-03-24 15:18:00,74.0,59.2,29.61,SW,224,2.0,6.0,60,0.00,,---,0.01,VWS V14.01,2013-03-24 20:18:00,
2013-03-24 15:23:00,73.7,59.4,29.61,WNW,295,1.0,6.0,61,0.00,,---,0.01,VWS V14.01,2013-03-24 20:23:00,
2013-03-24 15:28:00,74.0,59.7,29.61,WNW,300,3.0,6.0,61,0.00,,---,0.01,VWS V14.01,2013-03-24 20:28:00,
2013-03-24 15:33:00,73.9,58.7,29.61,West,259,1.0,6.0,59,0.00,,---,0.01,VWS V14.01,2013-03-24 20:33:00,
2013-03-24 15:38:00,74.3,59.1,29.61,WSW,242,0.0,3.0,59,0.00,,---,0.01,VWS V14.01,2013-03-24 20:38:00,
2013-03-24 15:43:00,74.2,58.0,29.61,WSW,253,0.0,5.0,57,0.00,,---,0.01,VWS V14.01,2013-03-24 20:43:00,
2013-03-24 15:48:00,74.5,58.8,29.61,East,83,2.0,5.0,58,0.00,,---,0.01,VWS V14.01,2013-03-24 20:48:00,
2013-03-24 15:53:00,74.1,57.4,29.62,SSW,204,1.0,5.0,56,0.00,,---,0.01,VWS V14.01,2013-03-24 20:53:00,
2013-03-24 15:58:00,73.7,56.0,29.62,NE,51,0.0,5.0,54,0.00,,---,0.01,VWS V14.01,2013-03-24 20:58:00,
2013-03-24 16:03:00,73.8,56.6,29.62,SSE,150,0.0,5.0,55,0.00,,---,0.01,VWS V14.01,2013-03-24 21:03:00,
2013-03-24 16:08:00,73.9,57.2,29.62,SSW,201,3.0,4.0,56,0.00,,---,0.01,VWS V14.01,2013-03-24 21:08:00,
2013-03-24 16:13:00,73.3,56.7,29.62,WSW,257,0.0,8.0,56,0.00,,---,0.01,VWS V14.01,2013-03-24 21:13:00,
2013-03-24 16:18:00,72.4,54.8,29.63,WNW,297,2.0,13.0,54,0.00,,---,0.01,VWS V14.01,2013-03-24 21:18:00,
2013-03-24 16:23:00,71.7,55.2,29.63,WNW,303,0.0,13.0,56,0.00,,---,0.01,VWS V14.01,2013-03-24 21:23:00,
2013-03-24 16:28:00,72.0,55.0,29.63,NNW,346,1.0,13.0,55,0.00,,---,0.01,VWS V14.01,2013-03-24 21:28:00,
2013-03-24 16:33:00,71.7,53.7,29.63,South,183,1.0,13.0,53,0.00,,---,0.01,VWS V14.01,2013-03-24 21:33:00,
2013-03-24 16:38:00,71.5,54.0,29.63,SE,132,0.0,5.0,54,0.00,,---,0.01,VWS V14.01,2013-03-24 21:38:00,
2013-03-24 16:43:00,71.7,53.7,29.64,NW,304,1.0,12.0,53,0.00,,---,0.01,VWS V14.01,2013-03-24 21:43:00,
2013-03-24 16:48:00,70.9,51.3,29.64,SW,221,1.0,12.0,50,0.00,,---,0.01,VWS V14.01,2013-03-24 21:48:00,
2013-03-24 16:53:00,70.4,50.9,29.64,West,260,0.0,12.0,50,0.00,,---,0.01,VWS V14.01,2013-03-24 21:53:00,
2013-03-24 16:58:00,70.0,49.4,29.64,WNW,288,1.0,12.0,48,0.00,,---,0.01,VWS V14.01,2013-03-24 21:58:00,
2013-03-24 17:03:00,69.7,49.7,29.64,WNW,297,1.0,12.0,49,0.00,,---,0.01,VWS V14.01,2013-03-24 22:03:00,